Вернуться в каталог

DELTA 1 DEB

АктивенLEO
NORAD 7156·DEBRIS·🇺🇸 United States

Запущен Nov 6, 1973 с Vandenberg Space Force Base

Loading…

Ближайшие Пролёты (ближайшие 24 часа)

TLE

СвежийSource: Space-Track

Эпоха: Sep 14, 2026, 13:37 UTC

1 07156U 73086DV  26257.56742892 -.00000042  00000-0 -68674-5 0  9992
2 07156 101.9749 124.4084 0137589  33.8326 354.3413 12.14427847343343

Отслеживайте DELTA 1 DEB в реальном времени с AllMySat

Download on the App Store